Weather History for PARC - March, 2013

Change the Weather History Date:

Sunday, March 31, 2013

  Actual Average Record
Temperature  
Mean Temperature 4 °F -  
Max Temperature 19 °F 22 °F 37 °F (1990)
Min Temperature -11 °F -13 °F -42 °F (1972)
Degree Days  
Heating Degree Days 61    
Moisture  
Dew Point -2 °F    
Average Humidity 63    
Maximum Humidity 92    
Minimum Humidity 27    
Precipitation  
Precipitation 0.00 in - - ()
Sea Level Pressure  
Sea Level Pressure 30.10 in    
Wind  
Wind Speed 1 mph (NE)    
Max Wind Speed 8 mph    
Max Gust Speed -    
Visibility 10 miles    
Events      
Averages and records for this station are not official NWS values.
T = Trace of Precipitation, MM = Missing Value Source: NWS Daily Summary

Daily Weather History Graph

Daily Weather History Graph

Search for Another Location

Airport or City:

Trip Planner

Search our weather history database for the weather conditions in past years. The results will help you decide how hot, cold, wet, or windy it might be!

Date:

Astronomy

Mar. 31, 2013 Rise Set
Actual Time 6:53 AM AKDT 8:41 PM AKDT
Civil Twilight 5:53 AM AKDT 9:41 PM AKDT
Nautical Twilight 4:32 AM AKDT 11:04 PM AKDT
Astronomical Twilight 2:18 AM AKDT 1:13 AM AKDT
Moon 3:33 AM AKDT 7:09 AM AKDT
Length of Visible Light 15h 47m
Length of Day
13h 48m
Waning Gibbous, 76% of the Moon is Illuminated
Mar 31
Waning Gibbous
Apr 2
Last Quarter
Apr 10
New
Apr 18
First Quarter
Apr 25
Full

Hourly Weather History & Observations

Time (AKDT) Temp. Windchill Dew Point Humidity Pressure Visibility Wind Dir Wind Speed Gust Speed Precip Events Conditions
12:16 AM 3.2 °F -6.2 °F -0.4 °F 85% 30.08 in 10.0 mi NE 4.6 mph - N/A   Clear
12:36 AM 1.4 °F -6.2 °F -25.6 °F 27% 30.08 in 9.0 mi ENE 3.5 mph - N/A   Clear
12:56 AM 1.4 °F - -2.2 °F 85% 30.08 in 10.0 mi Calm Calm - N/A   Mostly Cloudy
1:16 AM -0.4 °F -8.3 °F -5.8 °F 78% 30.09 in 10.0 mi NNE 3.5 mph - N/A   Overcast
1:36 AM -0.4 °F - -5.8 °F 78% 30.09 in 10.0 mi Calm Calm - N/A   Overcast
1:56 AM -0.4 °F - -4.0 °F 85% 30.09 in 10.0 mi Calm Calm - N/A   Overcast
2:16 AM -0.4 °F - -2.2 °F 92% 30.09 in 10.0 mi Calm Calm - N/A   Overcast
2:36 AM -0.4 °F - -7.6 °F 72% 30.09 in 10.0 mi Calm Calm - N/A   Scattered Clouds
2:56 AM -0.4 °F - -2.2 °F 92% 30.10 in 10.0 mi Calm Calm - N/A   Clear
3:16 AM 1.4 °F - -22.0 °F 33% 30.10 in 10.0 mi Calm Calm - N/A   Clear
3:36 AM -5.8 °F - - N/A% 30.10 in 10.0 mi Calm Calm - N/A   Clear
3:56 AM -2.2 °F - -20.2 °F 42% 30.10 in 10.0 mi Calm Calm - N/A   Clear
4:16 AM -2.2 °F - -11.2 °F 66% 30.10 in 10.0 mi Calm Calm - N/A   Scattered Clouds
4:36 AM -4.0 °F - -14.8 °F 60% 30.10 in 10.0 mi Calm Calm - N/A   Overcast
4:56 AM -5.8 °F - -14.8 °F 65% 30.10 in 10.0 mi Calm Calm - N/A   Mostly Cloudy
5:16 AM -4.0 °F - -13.0 °F 65% 30.10 in 10.0 mi Calm Calm - N/A   Mostly Cloudy
5:36 AM -5.8 °F - -23.8 °F 42% 30.10 in 10.0 mi Calm Calm - N/A   Scattered Clouds
5:56 AM -5.8 °F -14.5 °F - N/A% 30.10 in 9.0 mi NNE 3.5 mph - N/A   Clear
6:16 AM -7.6 °F - - N/A% 30.10 in 10.0 mi Calm Calm - N/A   Clear
6:36 AM -5.8 °F - - N/A% 30.10 in 10.0 mi Calm Calm - N/A   Clear
6:56 AM -11.2 °F - - N/A% 30.10 in 10.0 mi Calm Calm - N/A   Scattered Clouds
7:16 AM -9.4 °F - - N/A% 30.10 in 10.0 mi Calm Calm - N/A   Overcast
7:36 AM -5.8 °F - -16.6 °F 60% 30.10 in 10.0 mi Calm Calm - N/A   Overcast
7:56 AM -5.8 °F - - N/A% 30.10 in 10.0 mi Calm Calm - N/A   Overcast
8:16 AM -7.6 °F - - N/A% 30.10 in 10.0 mi Calm Calm - N/A   Scattered Clouds
8:36 AM -5.8 °F - -31.0 °F 29% 30.10 in 10.0 mi Calm Calm - N/A   Clear
8:56 AM -4.0 °F - -25.6 °F 35% 30.10 in 10.0 mi Calm Calm - N/A   Mostly Cloudy
9:16 AM -2.2 °F - -14.8 °F 55% 30.10 in 10.0 mi Calm Calm - N/A   Overcast
9:36 AM -4.0 °F - - N/A% 30.10 in 10.0 mi Calm Calm - N/A   Overcast
9:56 AM -2.2 °F - -29.2 °F 27% 30.11 in 10.0 mi Calm Calm - N/A   Overcast
10:16 AM 3.2 °F - -22.0 °F 30% 30.10 in 10.0 mi Calm Calm - N/A   Overcast
10:36 AM 5.0 °F - - N/A% 30.10 in 10.0 mi Calm Calm - N/A   Mostly Cloudy
10:56 AM 6.8 °F - -18.4 °F 31% 30.11 in 10.0 mi Calm Calm - N/A   Clear
11:16 AM 8.6 °F - -0.4 °F 67% 30.10 in 10.0 mi Calm Calm - N/A   Clear
11:36 AM 8.6 °F - 1.4 °F 73% 30.10 in 10.0 mi Calm Calm - N/A   Clear
11:56 AM 10.4 °F - -0.4 °F 62% 30.10 in 10.0 mi Calm Calm - N/A   Clear
12:16 PM 10.4 °F - 1.4 °F 67% 30.10 in 10.0 mi Calm Calm - N/A   Clear
12:36 PM 12.2 °F - 3.2 °F 67% 30.11 in 10.0 mi Calm Calm - N/A   Clear
12:56 PM 12.2 °F - 3.2 °F 67% 30.11 in 10.0 mi Calm Calm - N/A   Clear
1:16 PM 14.0 °F - 3.2 °F 62% 30.11 in 10.0 mi Calm Calm - N/A   Clear
1:36 PM 15.8 °F - 1.4 °F 53% 30.11 in 10.0 mi Calm Calm - N/A   Clear
1:56 PM 15.8 °F - 3.2 °F 58% 30.10 in 10.0 mi Calm Calm - N/A   Clear
2:16 PM 17.6 °F - 3.2 °F 53% 30.10 in 10.0 mi Calm Calm - N/A   Clear
2:36 PM 17.6 °F - 5.0 °F 58% 30.10 in 10.0 mi Calm Calm - N/A   Scattered Clouds
2:56 PM 19.4 °F - 6.8 °F 58% 30.10 in 10.0 mi Calm Calm - N/A   Overcast
3:16 PM 17.6 °F - 3.2 °F 53% 30.10 in 10.0 mi Calm Calm - N/A   Overcast
3:36 PM 19.4 °F - 6.8 °F 58% 30.10 in 10.0 mi Calm Calm - N/A   Partly Cloudy
3:56 PM 19.4 °F - 6.8 °F 58% 30.10 in 10.0 mi Calm Calm - N/A   Clear
4:16 PM 19.4 °F - 8.6 °F 63% 30.10 in 10.0 mi Calm Calm - N/A   Clear
4:36 PM 19.4 °F 14.3 °F 8.6 °F 63% 30.09 in 10.0 mi SSE 3.5 mph - N/A   Clear
4:56 PM 19.4 °F - 8.6 °F 63% 30.10 in 10.0 mi Calm Calm - N/A   Clear
5:16 PM 19.4 °F - 8.6 °F 63% 30.09 in 10.0 mi Calm Calm - N/A   Clear
5:36 PM 19.4 °F - 8.6 °F 63% 30.09 in 10.0 mi Calm Calm - N/A   Scattered Clouds
5:56 PM 19.4 °F 14.3 °F 8.6 °F 63% 30.09 in 10.0 mi ENE 3.5 mph - N/A   Scattered Clouds
6:16 PM 19.4 °F - 8.6 °F 63% 30.09 in 10.0 mi Calm Calm - N/A   Clear
6:36 PM 19.4 °F 14.3 °F 6.8 °F 58% 30.09 in 10.0 mi NNE 3.5 mph - N/A   Clear
6:56 PM 19.4 °F 14.3 °F 6.8 °F 58% 30.09 in 10.0 mi NNE 3.5 mph - N/A   Partly Cloudy
7:16 PM 19.4 °F 12.8 °F 8.6 °F 63% 30.09 in 10.0 mi NNE 4.6 mph - N/A   Mostly Cloudy
7:36 PM 17.6 °F 10.7 °F 8.6 °F 68% 30.09 in 10.0 mi NNW 4.6 mph - N/A   Overcast
7:56 PM 17.6 °F 10.7 °F 8.6 °F 68% 30.09 in 10.0 mi North 4.6 mph - N/A   Overcast
8:16 PM 15.8 °F - 6.8 °F 68% 30.09 in 10.0 mi Calm Calm - N/A   Overcast
8:36 PM 12.2 °F 6.1 °F 5.0 °F 73% 30.09 in 10.0 mi East 3.5 mph - N/A   Mostly Cloudy
8:56 PM 12.2 °F 4.3 °F 6.8 °F 79% 30.09 in 10.0 mi ENE 4.6 mph - N/A   Scattered Clouds
9:16 PM 12.2 °F 4.3 °F 6.8 °F 79% 30.09 in 10.0 mi ENE 4.6 mph - N/A   Mostly Cloudy
9:36 PM 12.2 °F 6.1 °F 6.8 °F 79% 30.09 in 10.0 mi ENE 3.5 mph - N/A   Mostly Cloudy
9:56 PM 10.4 °F 2.2 °F 6.8 °F 85% 30.09 in 10.0 mi ENE 4.6 mph - N/A   Overcast
10:16 PM 10.4 °F -0.4 °F 6.8 °F 85% 30.09 in 10.0 mi ENE 6.9 mph - N/A   Overcast
10:36 PM 10.4 °F -1.5 °F 3.2 °F 73% 30.10 in 10.0 mi ENE 8.1 mph - N/A   Overcast
10:56 PM 10.4 °F -0.4 °F 5.0 °F 79% 30.10 in 10.0 mi ENE 6.9 mph - N/A   Overcast
11:16 PM 10.4 °F 2.2 °F 5.0 °F 79% 30.10 in 10.0 mi ENE 4.6 mph - N/A   Overcast
11:36 PM 8.6 °F -1.3 °F 5.0 °F 85% 30.10 in 10.0 mi NE 5.8 mph - N/A   Overcast